TimeEDT,TemperatureF,Dew PointF,Humidity,Sea Level PressureIn,VisibilityMPH,Wind Direction,Wind SpeedMPH,Gust SpeedMPH,PrecipitationIn,Events,Conditions,WindDirDegrees,DateUTC
12:54 AM,50.0,39.9,68,29.89,10.0,South,12.7,-,N/A,,Clear,180,2013-10-22 04:54:00
1:54 AM,48.0,39.9,74,29.89,10.0,South,5.8,-,N/A,,Clear,180,2013-10-22 05:54:00
2:54 AM,48.9,41.0,74,29.86,10.0,SSW,4.6,-,N/A,,Clear,210,2013-10-22 06:54:00
3:54 AM,45.0,39.9,82,29.84,10.0,Calm,Calm,-,N/A,,Clear,0,2013-10-22 07:54:00
4:54 AM,46.9,41.0,80,29.82,10.0,South,4.6,-,N/A,,Clear,170,2013-10-22 08:54:00
5:54 AM,44.1,41.0,89,29.82,10.0,North,3.5,-,N/A,,Scattered Clouds,350,2013-10-22 09:54:00
6:54 AM,46.0,42.1,86,29.81,10.0,Calm,Calm,-,N/A,,Clear,0,2013-10-22 10:54:00
7:54 AM,48.9,43.0,80,29.79,10.0,Calm,Calm,-,N/A,,Scattered Clouds,0,2013-10-22 11:54:00
8:54 AM,50.0,44.1,80,29.78,10.0,SW,5.8,-,N/A,,Overcast,220,2013-10-22 12:54:00
9:54 AM,52.0,44.1,74,29.76,10.0,South,8.1,-,N/A,,Overcast,190,2013-10-22 13:54:00
10:54 AM,53.1,44.1,71,29.75,10.0,SW,6.9,-,N/A,,Overcast,230,2013-10-22 14:54:00
11:54 AM,54.0,45.0,72,29.74,10.0,SSW,6.9,-,N/A,,Overcast,210,2013-10-22 15:54:00
12:54 PM,52.0,46.9,83,29.75,3.0,WSW,6.9,-,0.02,Rain,Light Rain,240,2013-10-22 16:54:00
1:16 PM,51.8,48.2,88,29.76,2.5,WSW,8.1,-,0.03,Rain,Light Rain,240,2013-10-22 17:16:00
1:24 PM,50.0,48.2,94,29.75,1.8,South,6.9,-,0.05,Rain,Rain,190,2013-10-22 17:24:00
1:33 PM,51.8,48.2,88,29.75,3.0,West,4.6,-,0.06,Rain,Light Rain,260,2013-10-22 17:33:00
1:54 PM,51.1,48.9,92,29.72,6.0,South,4.6,-,0.06,Rain,Light Rain,180,2013-10-22 17:54:00
2:54 PM,53.1,48.0,83,29.71,10.0,WSW,5.8,-,0.00,,Mostly Cloudy,240,2013-10-22 18:54:00
3:12 PM,48.2,44.6,87,29.74,10.0,NW,11.5,20.7,N/A,,Mostly Cloudy,310,2013-10-22 19:12:00
3:23 PM,48.2,42.8,82,29.74,10.0,WNW,9.2,-,N/A,,Mostly Cloudy,300,2013-10-22 19:23:00
3:54 PM,46.9,39.9,77,29.75,10.0,NNW,8.1,17.3,N/A,,Scattered Clouds,330,2013-10-22 19:54:00
4:05 PM,46.4,39.2,76,29.76,10.0,NW,11.5,16.1,N/A,,Mostly Cloudy,320,2013-10-22 20:05:00
4:38 PM,46.4,37.4,71,29.75,10.0,NW,6.9,-,N/A,,Scattered Clouds,320,2013-10-22 20:38:00
4:54 PM,46.9,39.0,74,29.74,10.0,Calm,Calm,-,N/A,,Mostly Cloudy,0,2013-10-22 20:54:00
5:54 PM,46.9,37.0,68,29.75,10.0,NNW,4.6,-,N/A,,Mostly Cloudy,330,2013-10-22 21:54:00
6:54 PM,44.1,37.9,79,29.77,10.0,West,4.6,-,N/A,,Mostly Cloudy,270,2013-10-22 22:54:00
7:54 PM,42.1,36.0,79,29.77,10.0,Calm,Calm,-,N/A,,Scattered Clouds,0,2013-10-22 23:54:00
8:54 PM,42.1,35.1,76,29.78,10.0,Calm,Calm,-,N/A,,Clear,0,2013-10-23 00:54:00
9:54 PM,41.0,33.1,73,29.79,10.0,Calm,Calm,-,N/A,,Clear,0,2013-10-23 01:54:00
10:54 PM,39.0,32.0,76,29.78,10.0,WSW,5.8,-,N/A,,Clear,250,2013-10-23 02:54:00
11:54 PM,39.9,30.0,68,29.78,10.0,Variable,4.6,-,N/A,,Clear,0,2013-10-23 03:54:00